Location: Mahannah Oil Field
(37.4664°N, 96.6003°W)
Time: 01:21:01
(UTC+00:00)

A-11 Canister half - Pass Details

Date: 30 January 2021
Orbit: 1524 x 1684 km, 47.3° (Epoch: 25 February)

Event Time Altitude Azimuth Distance (km) Brightness Sun altitude
Rises 20:10:42 0° 254° (WSW) 4,667 12.1 31.1°
Reaches altitude 10° 20:13:47 10° 258° (WSW) 3,686 11.6 30.8°
Maximum altitude 20:22:58 62° 338° (NNW) 1,706 9.5 30.0°
Drops below altitude 10° 20:32:21 10° 59° (ENE) 3,763 10.7 29.1°
Sets 20:35:33 0° 63° (ENE) 4,769 11.1 28.7°
